GEFSGL_prec_meanprecacc_132.txt.gz
Total_Precipitation_Accumulation
0.89 0.86 0.81 0.79 0.74 0.68 0.65 0.61 0.53 0.47 0.43 0.41 0.41 0.40 0.42 0.47 0.50 0.52 0.53 0.53 0.56 0.52 0.51 0.50 0.48 0.48 0.50 0.52 0.57 0.62 0.66 0.71 0.81 0.75 0.60 0.54 0.54 0.56 0.58 0.53 0.52 0.47 0.39
0.69 0.72 0.71 0.64 0.58 0.54 0.50 0.50 0.48 0.44 0.41 0.41 0.42 0.39 0.37 0.37 0.40 0.45 0.47 0.48 0.51 0.49 0.46 0.44 0.43 0.44 0.46 0.47 0.50 0.54 0.60 0.68 0.78 0.81 0.66 0.54 0.49 0.47 0.46 0.45 0.38 0.34 0.34
0.47 0.47 0.51 0.49 0.46 0.43 0.39 0.39 0.38 0.37 0.37 0.36 0.36 0.34 0.34 0.34 0.33 0.33 0.35 0.37 0.38 0.39 0.39 0.41 0.43 0.43 0.42 0.43 0.46 0.49 0.56 0.64 0.75 0.77 0.66 0.56 0.50 0.48 0.55 0.51 0.43 0.49 0.39
0.40 0.37 0.41 0.42 0.41 0.39 0.38 0.36 0.34 0.33 0.32 0.29 0.26 0.24 0.24 0.24 0.23 0.21 0.20 0.22 0.25 0.25 0.27 0.32 0.38 0.41 0.41 0.46 0.49 0.51 0.55 0.62 0.66 0.69 0.60 0.50 0.50 0.51 0.61 0.66 0.60 0.55 0.47
0.40 0.40 0.42 0.40 0.39 0.40 0.41 0.38 0.35 0.32 0.28 0.25 0.22 0.19 0.17 0.16 0.16 0.15 0.15 0.15 0.19 0.20 0.21 0.24 0.28 0.32 0.38 0.41 0.42 0.47 0.54 0.62 0.65 0.67 0.61 0.54 0.51 0.61 0.68 0.68 0.63 0.58 0.48
0.41 0.44 0.46 0.44 0.44 0.44 0.42 0.41 0.38 0.33 0.28 0.23 0.17 0.15 0.13 0.11 0.12 0.12 0.13 0.16 0.18 0.20 0.23 0.23 0.20 0.19 0.21 0.22 0.28 0.36 0.45 0.55 0.64 0.70 0.68 0.66 0.59 0.63 0.72 0.72 0.72 0.70 0.60
0.47 0.46 0.47 0.45 0.45 0.42 0.38 0.39 0.37 0.32 0.28 0.24 0.18 0.15 0.14 0.11 0.08 0.08 0.09 0.14 0.20 0.25 0.28 0.26 0.20 0.17 0.21 0.25 0.25 0.27 0.36 0.42 0.55 0.71 0.77 0.70 0.66 0.70 0.81 0.84 0.79 0.78 0.75
0.50 0.49 0.45 0.41 0.41 0.38 0.37 0.38 0.35 0.31 0.28 0.25 0.21 0.17 0.17 0.11 0.06 0.06 0.07 0.11 0.18 0.20 0.20 0.22 0.27 0.29 0.23 0.20 0.22 0.31 0.42 0.49 0.54 0.60 0.70 0.66 0.63 0.65 0.73 0.79 0.76 0.76 0.69
0.49 0.45 0.38 0.34 0.34 0.33 0.36 0.37 0.34 0.32 0.30 0.26 0.22 0.19 0.19 0.14 0.06 0.04 0.04 0.10 0.14 0.14 0.14 0.15 0.18 0.23 0.18 0.17 0.27 0.44 0.52 0.63 0.65 0.76 0.76 0.70 0.70 0.69 0.61 0.63 0.80 0.92 0.86
0.36 0.31 0.26 0.25 0.27 0.28 0.30 0.31 0.30 0.30 0.28 0.24 0.21 0.20 0.18 0.15 0.07 0.04 0.04 0.09 0.13 0.13 0.17 0.20 0.16 0.13 0.14 0.19 0.31 0.51 0.67 0.73 0.86 1.05 1.00 0.93 0.86 0.82 0.70 0.67 0.89 1.06 1.05
0.24 0.20 0.19 0.19 0.21 0.22 0.25 0.29 0.29 0.28 0.29 0.26 0.24 0.22 0.17 0.10 0.06 0.02 0.02 0.07 0.10 0.14 0.20 0.25 0.25 0.18 0.17 0.19 0.31 0.53 0.70 0.72 0.94 1.20 1.10 0.93 0.86 0.80 0.77 0.79 0.87 0.94 0.92
0.19 0.19 0.19 0.16 0.13 0.14 0.24 0.30 0.28 0.30 0.31 0.30 0.28 0.23 0.17 0.12 0.06 0.02 0.01 0.02 0.05 0.17 0.30 0.30 0.29 0.26 0.23 0.28 0.42 0.61 0.75 0.90 1.06 1.16 0.99 0.81 0.70 0.69 0.69 0.64 0.62 0.64 0.69
0.22 0.24 0.23 0.19 0.17 0.17 0.22 0.27 0.28 0.29 0.26 0.23 0.22 0.20 0.18 0.16 0.10 0.03 0.02 0.02 0.05 0.15 0.30 0.34 0.33 0.30 0.38 0.56 0.69 0.80 0.93 1.09 1.13 1.00 0.86 0.75 0.63 0.58 0.54 0.52 0.51 0.54 0.57
0.24 0.22 0.20 0.21 0.23 0.23 0.22 0.18 0.20 0.22 0.19 0.17 0.18 0.19 0.21 0.20 0.12 0.07 0.08 0.10 0.12 0.17 0.26 0.39 0.47 0.50 0.65 0.85 0.98 1.07 1.15 1.16 1.01 0.90 0.79 0.69 0.57 0.54 0.52 0.46 0.48 0.50 0.54
0.21 0.20 0.19 0.16 0.19 0.25 0.21 0.12 0.10 0.10 0.07 0.10 0.14 0.15 0.20 0.19 0.09 0.07 0.10 0.13 0.16 0.20 0.26 0.41 0.57 0.63 0.76 0.92 1.03 1.08 1.11 1.09 1.01 0.88 0.77 0.67 0.59 0.54 0.50 0.43 0.42 0.44 0.47
0.21 0.17 0.12 0.10 0.13 0.15 0.18 0.16 0.07 0.03 0.02 0.03 0.05 0.06 0.08 0.09 0.07 0.06 0.08 0.12 0.17 0.23 0.31 0.52 0.64 0.66 0.74 0.84 0.93 1.01 1.00 0.95 0.88 0.83 0.78 0.72 0.63 0.54 0.50 0.45 0.41 0.41 0.45
0.15 0.13 0.08 0.06 0.08 0.11 0.14 0.21 0.22 0.12 0.03 0.02 0.02 0.04 0.05 0.06 0.07 0.06 0.07 0.12 0.16 0.25 0.38 0.58 0.68 0.74 0.79 0.82 0.83 0.86 0.91 0.91 0.82 0.76 0.71 0.65 0.56 0.50 0.46 0.43 0.39 0.37 0.38
0.07 0.05 0.05 0.07 0.06 0.07 0.08 0.11 0.16 0.23 0.22 0.17 0.07 0.04 0.04 0.07 0.09 0.09 0.10 0.13 0.21 0.27 0.42 0.57 0.67 0.73 0.77 0.79 0.77 0.74 0.77 0.79 0.73 0.65 0.60 0.54 0.49 0.46 0.41 0.39 0.35 0.28 0.27
0.06 0.06 0.05 0.04 0.04 0.03 0.04 0.06 0.08 0.13 0.18 0.19 0.17 0.10 0.07 0.10 0.13 0.14 0.16 0.20 0.26 0.30 0.38 0.51 0.60 0.65 0.66 0.67 0.67 0.65 0.66 0.67 0.63 0.57 0.53 0.49 0.45 0.41 0.37 0.30 0.26 0.18 0.21
0.04 0.02 0.03 0.03 0.03 0.02 0.02 0.04 0.06 0.11 0.12 0.14 0.16 0.14 0.12 0.22 0.33 0.30 0.24 0.23 0.24 0.27 0.34 0.45 0.54 0.56 0.55 0.51 0.49 0.49 0.50 0.50 0.50 0.48 0.47 0.45 0.41 0.36 0.29 0.24 0.21 0.21 0.22
0.02 0.01 0.01 0.01 0.01 0.01 0.01 0.02 0.04 0.07 0.10 0.12 0.10 0.09 0.16 0.27 0.37 0.36 0.31 0.30 0.30 0.30 0.32 0.36 0.42 0.45 0.44 0.40 0.36 0.34 0.34 0.37 0.38 0.38 0.39 0.38 0.33 0.29 0.23 0.18 0.16 0.13 0.13
0.01 0.01 0.01 0.01 0.00 0.00 0.01 0.01 0.02 0.03 0.05 0.09 0.10 0.10 0.16 0.22 0.29 0.33 0.35 0.35 0.37 0.36 0.33 0.33 0.34 0.36 0.35 0.33 0.30 0.27 0.26 0.27 0.28 0.31 0.33 0.32 0.28 0.23 0.17 0.12 0.09 0.08 0.07
0.01 0.01 0.01 0.00 0.00 0.00 0.01 0.02 0.02 0.02 0.03 0.05 0.07 0.11 0.15 0.23 0.28 0.35 0.39 0.38 0.37 0.37 0.33 0.29 0.32 0.35 0.32 0.28 0.25 0.22 0.21 0.21 0.21 0.24 0.31 0.32 0.26 0.19 0.13 0.09 0.06 0.05 0.04
0.00 0.01 0.01 0.00 0.00 0.01 0.01 0.01 0.01 0.01 0.01 0.03 0.05 0.08 0.12 0.18 0.23 0.27 0.33 0.36 0.37 0.37 0.37 0.37 0.37 0.36 0.31 0.25 0.21 0.19 0.19 0.19 0.19 0.23 0.27 0.29 0.24 0.16 0.10 0.07 0.05 0.04 0.04
0.00 0.00 0.00 0.00 0.00 0.00 0.00 0.01 0.01 0.01 0.01 0.02 0.03 0.05 0.09 0.11 0.13 0.16 0.21 0.26 0.29 0.32 0.34 0.36 0.35 0.32 0.27 0.22 0.17 0.14 0.16 0.16 0.14 0.18 0.25 0.28 0.21 0.14 0.09 0.06 0.05 0.04 0.04
0.00 0.00 0.00 0.00 0.00 0.00 0.00 0.00 0.01 0.01 0.01 0.01 0.02 0.03 0.05 0.07 0.09 0.12 0.14 0.17 0.19 0.23 0.27 0.32 0.32 0.23 0.16 0.12 0.11 0.10 0.08 0.06 0.05 0.08 0.18 0.23 0.17 0.12 0.12 0.09 0.05 0.04 0.05

GEFSGL_prec_meanprecacc_138.txt.gz
Total_Precipitation_Accumulation
0.92 0.89 0.86 0.85 0.78 0.71 0.67 0.63 0.55 0.48 0.44 0.43 0.43 0.42 0.43 0.47 0.50 0.53 0.55 0.55 0.61 0.58 0.56 0.54 0.51 0.50 0.52 0.53 0.59 0.65 0.70 0.76 0.88 0.83 0.70 0.65 0.66 0.67 0.69 0.63 0.60 0.55 0.49
0.72 0.75 0.73 0.67 0.62 0.57 0.52 0.51 0.50 0.44 0.42 0.42 0.44 0.41 0.39 0.38 0.41 0.46 0.49 0.51 0.56 0.57 0.55 0.52 0.48 0.47 0.49 0.50 0.52 0.56 0.64 0.73 0.84 0.89 0.76 0.65 0.62 0.60 0.58 0.54 0.46 0.42 0.42
0.50 0.49 0.52 0.51 0.48 0.44 0.40 0.39 0.39 0.38 0.38 0.36 0.36 0.35 0.35 0.36 0.35 0.35 0.36 0.39 0.43 0.47 0.48 0.51 0.51 0.49 0.47 0.48 0.50 0.54 0.61 0.70 0.82 0.86 0.78 0.69 0.64 0.62 0.68 0.62 0.52 0.58 0.49
0.41 0.38 0.42 0.43 0.42 0.41 0.39 0.37 0.34 0.33 0.33 0.30 0.27 0.25 0.26 0.26 0.25 0.23 0.22 0.24 0.27 0.30 0.33 0.41 0.48 0.51 0.49 0.52 0.55 0.56 0.60 0.68 0.73 0.77 0.71 0.64 0.64 0.64 0.72 0.77 0.71 0.64 0.56
0.41 0.40 0.42 0.40 0.40 0.41 0.41 0.39 0.35 0.32 0.29 0.26 0.23 0.20 0.19 0.19 0.18 0.16 0.16 0.16 0.20 0.23 0.25 0.30 0.37 0.42 0.47 0.48 0.50 0.54 0.60 0.68 0.71 0.75 0.69 0.64 0.61 0.70 0.77 0.76 0.71 0.66 0.55
0.41 0.45 0.47 0.45 0.45 0.45 0.43 0.41 0.38 0.33 0.29 0.23 0.18 0.16 0.15 0.15 0.16 0.15 0.14 0.17 0.19 0.22 0.25 0.27 0.26 0.28 0.30 0.30 0.36 0.44 0.52 0.61 0.70 0.76 0.74 0.72 0.65 0.69 0.77 0.78 0.78 0.75 0.66
0.47 0.46 0.47 0.45 0.45 0.42 0.38 0.39 0.37 0.32 0.28 0.25 0.19 0.16 0.16 0.15 0.12 0.11 0.11 0.15 0.23 0.28 0.30 0.28 0.24 0.23 0.29 0.32 0.31 0.34 0.44 0.50 0.62 0.77 0.83 0.75 0.71 0.74 0.85 0.89 0.84 0.83 0.78
0.50 0.49 0.45 0.42 0.41 0.38 0.38 0.39 0.36 0.32 0.28 0.26 0.22 0.18 0.18 0.14 0.10 0.09 0.10 0.13 0.20 0.22 0.22 0.25 0.30 0.33 0.29 0.26 0.26 0.36 0.47 0.55 0.60 0.65 0.75 0.70 0.66 0.68 0.75 0.81 0.80 0.80 0.74
0.49 0.45 0.38 0.34 0.34 0.33 0.36 0.38 0.35 0.33 0.31 0.27 0.23 0.21 0.21 0.17 0.10 0.08 0.08 0.13 0.17 0.17 0.16 0.18 0.20 0.26 0.22 0.22 0.32 0.48 0.55 0.66 0.69 0.81 0.80 0.73 0.72 0.70 0.62 0.63 0.82 0.95 0.90
0.37 0.31 0.26 0.25 0.27 0.28 0.30 0.32 0.31 0.31 0.30 0.26 0.24 0.23 0.21 0.19 0.11 0.08 0.07 0.12 0.16 0.15 0.18 0.22 0.18 0.14 0.16 0.22 0.34 0.54 0.69 0.75 0.88 1.07 1.02 0.95 0.87 0.83 0.70 0.67 0.89 1.07 1.06
0.24 0.21 0.20 0.20 0.21 0.22 0.25 0.29 0.30 0.29 0.30 0.28 0.27 0.25 0.22 0.16 0.10 0.05 0.04 0.09 0.12 0.15 0.21 0.26 0.26 0.19 0.19 0.22 0.34 0.55 0.72 0.74 0.95 1.21 1.11 0.94 0.86 0.80 0.78 0.79 0.87 0.94 0.93
0.20 0.20 0.19 0.16 0.14 0.15 0.24 0.30 0.29 0.30 0.32 0.32 0.31 0.26 0.20 0.15 0.08 0.04 0.03 0.04 0.05 0.17 0.31 0.30 0.30 0.27 0.25 0.30 0.43 0.62 0.75 0.90 1.07 1.16 0.99 0.82 0.71 0.69 0.69 0.64 0.63 0.64 0.69
0.22 0.24 0.23 0.19 0.18 0.18 0.23 0.27 0.28 0.29 0.28 0.25 0.25 0.23 0.20 0.17 0.11 0.04 0.03 0.03 0.06 0.16 0.30 0.34 0.33 0.31 0.39 0.58 0.70 0.81 0.93 1.09 1.13 1.01 0.87 0.75 0.63 0.58 0.54 0.53 0.52 0.55 0.58
0.24 0.23 0.21 0.22 0.24 0.23 0.23 0.18 0.20 0.22 0.20 0.19 0.20 0.22 0.23 0.21 0.13 0.08 0.08 0.10 0.12 0.17 0.26 0.39 0.47 0.50 0.65 0.85 0.99 1.08 1.15 1.16 1.01 0.90 0.79 0.69 0.57 0.54 0.52 0.47 0.49 0.51 0.54
0.21 0.20 0.19 0.17 0.20 0.25 0.21 0.12 0.10 0.11 0.08 0.11 0.14 0.16 0.21 0.19 0.09 0.07 0.10 0.13 0.16 0.21 0.26 0.41 0.57 0.63 0.76 0.92 1.03 1.09 1.12 1.10 1.01 0.89 0.78 0.68 0.59 0.54 0.51 0.43 0.43 0.44 0.47
0.22 0.18 0.12 0.10 0.13 0.15 0.18 0.17 0.08 0.03 0.03 0.03 0.05 0.06 0.08 0.09 0.07 0.06 0.08 0.12 0.17 0.23 0.31 0.52 0.64 0.66 0.74 0.84 0.93 1.01 1.00 0.96 0.89 0.84 0.79 0.72 0.63 0.54 0.50 0.45 0.41 0.42 0.45
0.16 0.14 0.08 0.06 0.08 0.11 0.14 0.22 0.22 0.12 0.04 0.02 0.02 0.04 0.05 0.06 0.07 0.06 0.07 0.12 0.16 0.25 0.38 0.58 0.68 0.74 0.79 0.82 0.83 0.86 0.91 0.91 0.83 0.76 0.71 0.65 0.56 0.50 0.46 0.44 0.39 0.37 0.38
0.08 0.05 0.05 0.07 0.06 0.07 0.08 0.11 0.16 0.23 0.22 0.17 0.07 0.04 0.05 0.07 0.09 0.09 0.10 0.13 0.21 0.27 0.42 0.57 0.67 0.73 0.77 0.79 0.77 0.74 0.77 0.79 0.73 0.65 0.60 0.54 0.49 0.46 0.41 0.39 0.35 0.28 0.27
0.06 0.06 0.05 0.04 0.04 0.04 0.05 0.06 0.08 0.13 0.18 0.20 0.17 0.10 0.07 0.10 0.13 0.14 0.16 0.20 0.26 0.30 0.38 0.51 0.60 0.65 0.66 0.67 0.67 0.65 0.66 0.67 0.63 0.57 0.53 0.49 0.45 0.41 0.37 0.30 0.26 0.18 0.21
0.04 0.03 0.03 0.03 0.03 0.02 0.03 0.04 0.07 0.11 0.13 0.14 0.16 0.15 0.12 0.23 0.33 0.30 0.24 0.23 0.24 0.27 0.34 0.45 0.54 0.56 0.55 0.52 0.49 0.49 0.50 0.50 0.50 0.48 0.47 0.45 0.41 0.36 0.30 0.24 0.21 0.21 0.22
0.02 0.01 0.01 0.01 0.01 0.01 0.01 0.02 0.04 0.07 0.10 0.12 0.10 0.09 0.16 0.27 0.37 0.36 0.31 0.30 0.30 0.30 0.32 0.36 0.42 0.45 0.45 0.41 0.36 0.34 0.34 0.37 0.38 0.38 0.39 0.38 0.33 0.29 0.23 0.18 0.16 0.13 0.13
0.01 0.01 0.01 0.01 0.01 0.01 0.01 0.01 0.02 0.03 0.05 0.09 0.10 0.10 0.16 0.22 0.29 0.33 0.35 0.35 0.37 0.36 0.33 0.33 0.35 0.36 0.35 0.33 0.31 0.27 0.26 0.27 0.28 0.31 0.33 0.32 0.28 0.23 0.17 0.12 0.09 0.08 0.07
0.01 0.01 0.01 0.00 0.00 0.00 0.01 0.02 0.02 0.02 0.03 0.05 0.07 0.11 0.15 0.23 0.28 0.35 0.39 0.38 0.37 0.37 0.33 0.30 0.32 0.35 0.32 0.28 0.25 0.22 0.21 0.21 0.21 0.25 0.31 0.32 0.26 0.19 0.13 0.09 0.06 0.05 0.04
0.00 0.01 0.01 0.00 0.00 0.01 0.01 0.01 0.01 0.01 0.01 0.03 0.05 0.08 0.12 0.18 0.23 0.28 0.33 0.36 0.37 0.38 0.37 0.38 0.37 0.36 0.31 0.25 0.21 0.19 0.19 0.19 0.19 0.23 0.27 0.29 0.24 0.16 0.10 0.07 0.05 0.04 0.04
0.00 0.00 0.00 0.00 0.00 0.00 0.00 0.01 0.01 0.01 0.01 0.02 0.03 0.05 0.09 0.11 0.13 0.16 0.21 0.26 0.29 0.32 0.34 0.36 0.36 0.32 0.27 0.22 0.17 0.14 0.16 0.16 0.14 0.18 0.25 0.28 0.21 0.14 0.09 0.06 0.05 0.04 0.04
0.00 0.00 0.00 0.00 0.00 0.00 0.00 0.00 0.01 0.01 0.01 0.01 0.02 0.03 0.05 0.07 0.09 0.12 0.14 0.17 0.20 0.23 0.27 0.32 0.32 0.23 0.16 0.12 0.11 0.10 0.08 0.06 0.05 0.08 0.18 0.23 0.17 0.12 0.12 0.09 0.05 0.04 0.05

GEFSGL_prec_meanprecacc_144.txt.gz
Total_Precipitation_Accumulation
0.93 0.91 0.88 0.87 0.80 0.74 0.69 0.66 0.57 0.51 0.47 0.45 0.44 0.44 0.44 0.48 0.51 0.54 0.56 0.57 0.62 0.60 0.58 0.57 0.55 0.53 0.55 0.57 0.63 0.68 0.74 0.80 0.92 0.87 0.74 0.70 0.73 0.77 0.81 0.73 0.71 0.66 0.60
0.74 0.77 0.74 0.69 0.65 0.62 0.57 0.54 0.51 0.45 0.43 0.44 0.45 0.42 0.40 0.39 0.42 0.47 0.52 0.53 0.58 0.58 0.57 0.56 0.52 0.51 0.53 0.53 0.55 0.58 0.66 0.76 0.88 0.93 0.82 0.72 0.68 0.68 0.68 0.65 0.55 0.49 0.50
0.52 0.51 0.54 0.53 0.50 0.48 0.43 0.41 0.40 0.40 0.39 0.37 0.37 0.37 0.36 0.36 0.36 0.36 0.39 0.41 0.46 0.49 0.52 0.56 0.55 0.53 0.51 0.51 0.54 0.57 0.64 0.74 0.87 0.92 0.84 0.76 0.71 0.70 0.76 0.71 0.61 0.65 0.55
0.43 0.40 0.44 0.45 0.43 0.42 0.41 0.38 0.35 0.34 0.34 0.31 0.27 0.25 0.27 0.27 0.27 0.25 0.24 0.27 0.30 0.33 0.38 0.48 0.54 0.55 0.52 0.56 0.58 0.60 0.64 0.73 0.80 0.85 0.79 0.71 0.70 0.71 0.78 0.84 0.79 0.71 0.62
0.42 0.42 0.44 0.42 0.41 0.41 0.42 0.39 0.36 0.33 0.29 0.27 0.23 0.20 0.20 0.20 0.20 0.19 0.18 0.19 0.24 0.26 0.29 0.36 0.43 0.48 0.50 0.51 0.53 0.58 0.66 0.74 0.79 0.83 0.78 0.71 0.68 0.76 0.83 0.81 0.78 0.74 0.62
0.42 0.46 0.48 0.46 0.46 0.45 0.43 0.42 0.39 0.34 0.30 0.24 0.18 0.16 0.16 0.15 0.18 0.17 0.17 0.20 0.23 0.26 0.29 0.31 0.31 0.35 0.36 0.35 0.41 0.49 0.59 0.68 0.78 0.84 0.82 0.78 0.71 0.75 0.82 0.82 0.83 0.82 0.73
0.49 0.48 0.48 0.47 0.47 0.43 0.39 0.40 0.38 0.33 0.29 0.25 0.20 0.17 0.17 0.15 0.14 0.14 0.15 0.20 0.27 0.32 0.34 0.33 0.29 0.30 0.37 0.39 0.39 0.42 0.51 0.57 0.69 0.84 0.89 0.80 0.75 0.78 0.88 0.93 0.89 0.88 0.85
0.53 0.51 0.47 0.43 0.42 0.39 0.39 0.40 0.37 0.33 0.29 0.27 0.23 0.19 0.19 0.15 0.12 0.12 0.14 0.18 0.24 0.26 0.26 0.29 0.34 0.39 0.37 0.34 0.33 0.43 0.53 0.62 0.66 0.70 0.81 0.75 0.70 0.71 0.78 0.84 0.83 0.84 0.78
0.53 0.48 0.40 0.36 0.35 0.34 0.37 0.39 0.36 0.34 0.32 0.28 0.24 0.21 0.23 0.20 0.14 0.12 0.13 0.18 0.21 0.20 0.19 0.21 0.24 0.30 0.28 0.30 0.39 0.54 0.60 0.71 0.74 0.85 0.84 0.77 0.74 0.72 0.64 0.65 0.83 0.97 0.93
0.39 0.33 0.28 0.27 0.29 0.30 0.31 0.33 0.33 0.32 0.30 0.26 0.24 0.24 0.22 0.22 0.13 0.10 0.11 0.15 0.19 0.18 0.21 0.24 0.21 0.17 0.21 0.27 0.39 0.59 0.74 0.78 0.91 1.10 1.05 0.98 0.90 0.84 0.71 0.69 0.91 1.09 1.08
0.26 0.23 0.21 0.22 0.23 0.24 0.26 0.30 0.31 0.30 0.30 0.28 0.28 0.27 0.24 0.18 0.12 0.07 0.07 0.11 0.15 0.18 0.24 0.29 0.28 0.22 0.22 0.25 0.37 0.58 0.74 0.76 0.97 1.24 1.14 0.97 0.89 0.83 0.80 0.80 0.88 0.96 0.95
0.22 0.21 0.22 0.19 0.15 0.16 0.25 0.31 0.30 0.32 0.33 0.34 0.33 0.28 0.23 0.18 0.12 0.08 0.06 0.05 0.07 0.20 0.34 0.32 0.31 0.29 0.27 0.33 0.46 0.64 0.78 0.92 1.09 1.19 1.01 0.83 0.73 0.70 0.70 0.65 0.64 0.65 0.70
0.24 0.26 0.25 0.20 0.19 0.18 0.23 0.28 0.29 0.31 0.29 0.27 0.27 0.26 0.23 0.20 0.15 0.08 0.05 0.05 0.07 0.17 0.31 0.35 0.34 0.32 0.40 0.60 0.72 0.83 0.95 1.12 1.16 1.03 0.88 0.76 0.63 0.59 0.55 0.54 0.52 0.55 0.58
0.26 0.25 0.22 0.23 0.24 0.24 0.23 0.19 0.21 0.23 0.21 0.20 0.23 0.24 0.25 0.24 0.16 0.10 0.10 0.11 0.13 0.18 0.27 0.39 0.47 0.51 0.66 0.87 1.00 1.09 1.17 1.18 1.03 0.92 0.81 0.70 0.58 0.55 0.54 0.48 0.50 0.52 0.55
0.23 0.22 0.20 0.18 0.21 0.26 0.22 0.13 0.11 0.12 0.08 0.12 0.16 0.18 0.23 0.22 0.11 0.08 0.10 0.13 0.17 0.21 0.27 0.42 0.57 0.63 0.77 0.93 1.05 1.11 1.14 1.12 1.03 0.90 0.79 0.69 0.60 0.55 0.52 0.44 0.44 0.45 0.48
0.23 0.19 0.13 0.10 0.13 0.16 0.19 0.18 0.08 0.04 0.03 0.04 0.05 0.07 0.09 0.10 0.08 0.07 0.08 0.13 0.18 0.25 0.33 0.53 0.65 0.67 0.75 0.85 0.94 1.02 1.01 0.97 0.90 0.85 0.80 0.73 0.64 0.55 0.51 0.46 0.42 0.43 0.46
0.17 0.15 0.09 0.06 0.08 0.11 0.15 0.22 0.23 0.12 0.04 0.03 0.03 0.04 0.06 0.06 0.08 0.07 0.08 0.12 0.16 0.26 0.40 0.59 0.69 0.75 0.79 0.83 0.84 0.87 0.92 0.91 0.83 0.77 0.72 0.66 0.57 0.50 0.47 0.44 0.40 0.38 0.39
0.08 0.06 0.06 0.07 0.06 0.07 0.09 0.12 0.17 0.24 0.23 0.17 0.08 0.04 0.05 0.07 0.09 0.09 0.10 0.14 0.21 0.28 0.43 0.58 0.68 0.74 0.78 0.80 0.77 0.74 0.77 0.80 0.73 0.65 0.60 0.55 0.50 0.46 0.42 0.40 0.36 0.29 0.28
0.07 0.07 0.06 0.05 0.04 0.04 0.05 0.06 0.09 0.14 0.18 0.20 0.17 0.10 0.07 0.10 0.13 0.14 0.16 0.20 0.26 0.30 0.39 0.51 0.61 0.66 0.66 0.67 0.67 0.65 0.66 0.68 0.63 0.58 0.54 0.50 0.46 0.41 0.37 0.31 0.26 0.19 0.21
0.04 0.03 0.03 0.04 0.03 0.03 0.03 0.04 0.07 0.12 0.13 0.14 0.17 0.15 0.13 0.23 0.33 0.30 0.24 0.23 0.24 0.27 0.34 0.45 0.54 0.56 0.55 0.52 0.49 0.49 0.50 0.50 0.50 0.48 0.47 0.45 0.41 0.36 0.30 0.24 0.22 0.21 0.22
0.02 0.01 0.01 0.02 0.02 0.02 0.02 0.02 0.04 0.07 0.10 0.12 0.10 0.09 0.16 0.27 0.37 0.36 0.31 0.30 0.30 0.30 0.32 0.36 0.42 0.45 0.45 0.41 0.36 0.34 0.35 0.37 0.38 0.38 0.39 0.38 0.33 0.29 0.23 0.18 0.16 0.13 0.13
0.01 0.01 0.01 0.01 0.01 0.01 0.01 0.01 0.02 0.03 0.05 0.09 0.10 0.10 0.16 0.22 0.29 0.33 0.35 0.35 0.37 0.36 0.33 0.33 0.35 0.36 0.35 0.33 0.31 0.27 0.26 0.27 0.28 0.31 0.33 0.32 0.28 0.23 0.17 0.12 0.10 0.08 0.07
0.01 0.01 0.01 0.00 0.00 0.00 0.01 0.02 0.02 0.02 0.03 0.05 0.07 0.11 0.15 0.23 0.29 0.35 0.39 0.38 0.37 0.37 0.33 0.30 0.32 0.35 0.32 0.28 0.25 0.22 0.21 0.21 0.21 0.25 0.31 0.32 0.26 0.19 0.13 0.09 0.06 0.05 0.04
0.00 0.01 0.01 0.00 0.00 0.01 0.01 0.01 0.01 0.01 0.01 0.03 0.05 0.08 0.12 0.18 0.23 0.28 0.33 0.36 0.37 0.38 0.37 0.38 0.37 0.36 0.31 0.25 0.21 0.19 0.19 0.19 0.19 0.24 0.27 0.29 0.24 0.16 0.10 0.07 0.05 0.04 0.04
0.00 0.00 0.00 0.00 0.00 0.00 0.00 0.01 0.01 0.01 0.01 0.02 0.03 0.05 0.09 0.11 0.13 0.16 0.21 0.26 0.29 0.32 0.34 0.36 0.36 0.32 0.27 0.22 0.17 0.14 0.16 0.16 0.14 0.18 0.25 0.28 0.21 0.14 0.09 0.06 0.05 0.05 0.04
0.00 0.00 0.00 0.00 0.00 0.00 0.00 0.00 0.01 0.01 0.01 0.01 0.02 0.03 0.05 0.07 0.09 0.12 0.14 0.17 0.20 0.23 0.27 0.32 0.32 0.23 0.16 0.12 0.11 0.10 0.08 0.06 0.05 0.08 0.18 0.23 0.17 0.13 0.12 0.10 0.05 0.04 0.05

GEFSGL_prec_meanprecacc_150.txt.gz
Total_Precipitation_Accumulation
0.95 0.93 0.92 0.91 0.83 0.77 0.74 0.68 0.59 0.52 0.48 0.46 0.45 0.45 0.46 0.50 0.53 0.56 0.57 0.59 0.65 0.64 0.62 0.60 0.57 0.56 0.58 0.61 0.67 0.72 0.79 0.87 0.98 0.91 0.77 0.73 0.76 0.80 0.84 0.76 0.75 0.71 0.65
0.76 0.81 0.80 0.73 0.68 0.65 0.61 0.57 0.53 0.47 0.44 0.45 0.46 0.44 0.41 0.40 0.43 0.49 0.53 0.55 0.61 0.62 0.61 0.61 0.56 0.54 0.57 0.57 0.59 0.62 0.70 0.81 0.94 0.98 0.86 0.75 0.72 0.71 0.71 0.68 0.58 0.54 0.55
0.55 0.54 0.58 0.56 0.54 0.52 0.47 0.45 0.42 0.41 0.40 0.38 0.38 0.38 0.37 0.37 0.37 0.37 0.40 0.43 0.48 0.54 0.56 0.61 0.61 0.58 0.56 0.56 0.58 0.61 0.69 0.80 0.93 0.96 0.88 0.79 0.75 0.73 0.79 0.75 0.65 0.69 0.59
0.45 0.43 0.47 0.48 0.46 0.46 0.44 0.41 0.37 0.35 0.35 0.32 0.29 0.27 0.28 0.28 0.27 0.26 0.26 0.29 0.33 0.37 0.42 0.54 0.59 0.59 0.57 0.60 0.63 0.65 0.71 0.81 0.86 0.89 0.83 0.75 0.74 0.75 0.82 0.88 0.84 0.77 0.67
0.45 0.45 0.47 0.44 0.42 0.43 0.45 0.41 0.37 0.34 0.30 0.28 0.25 0.21 0.20 0.21 0.21 0.21 0.21 0.21 0.27 0.30 0.33 0.41 0.48 0.51 0.53 0.54 0.56 0.62 0.71 0.82 0.87 0.90 0.83 0.76 0.72 0.81 0.88 0.86 0.83 0.80 0.68
0.45 0.49 0.50 0.48 0.48 0.47 0.45 0.44 0.41 0.36 0.32 0.25 0.21 0.18 0.17 0.16 0.18 0.18 0.19 0.23 0.29 0.33 0.36 0.38 0.38 0.40 0.40 0.38 0.44 0.51 0.63 0.75 0.86 0.92 0.89 0.84 0.77 0.80 0.88 0.89 0.88 0.88 0.80
0.53 0.52 0.52 0.49 0.49 0.46 0.41 0.42 0.40 0.35 0.31 0.28 0.23 0.20 0.19 0.16 0.14 0.14 0.17 0.25 0.34 0.40 0.42 0.41 0.35 0.36 0.42 0.43 0.42 0.44 0.55 0.62 0.76 0.92 0.97 0.88 0.81 0.83 0.95 0.99 0.94 0.93 0.91
0.57 0.55 0.52 0.48 0.45 0.42 0.41 0.42 0.39 0.35 0.32 0.31 0.26 0.22 0.22 0.16 0.13 0.13 0.16 0.22 0.28 0.30 0.30 0.34 0.41 0.46 0.41 0.39 0.38 0.47 0.57 0.66 0.71 0.77 0.88 0.81 0.75 0.76 0.84 0.89 0.86 0.87 0.82
0.57 0.51 0.43 0.38 0.38 0.37 0.40 0.42 0.39 0.37 0.35 0.31 0.27 0.24 0.26 0.21 0.16 0.14 0.15 0.22 0.24 0.24 0.22 0.24 0.28 0.34 0.32 0.36 0.46 0.60 0.64 0.74 0.78 0.91 0.91 0.82 0.78 0.76 0.67 0.68 0.87 1.00 0.96
0.42 0.36 0.30 0.29 0.31 0.33 0.34 0.36 0.35 0.34 0.32 0.28 0.27 0.27 0.25 0.24 0.16 0.14 0.14 0.17 0.22 0.21 0.24 0.27 0.24 0.21 0.24 0.32 0.47 0.66 0.79 0.83 0.95 1.15 1.09 1.02 0.93 0.87 0.73 0.72 0.95 1.12 1.11
0.29 0.27 0.25 0.25 0.26 0.26 0.28 0.32 0.33 0.31 0.32 0.31 0.31 0.30 0.26 0.20 0.14 0.09 0.09 0.13 0.16 0.20 0.27 0.31 0.31 0.24 0.25 0.29 0.42 0.62 0.77 0.80 1.02 1.28 1.18 1.00 0.93 0.86 0.82 0.83 0.91 0.98 0.98
0.27 0.27 0.26 0.21 0.17 0.17 0.27 0.34 0.32 0.34 0.36 0.36 0.35 0.31 0.25 0.19 0.13 0.09 0.07 0.07 0.08 0.22 0.36 0.34 0.33 0.31 0.29 0.36 0.49 0.66 0.79 0.95 1.12 1.22 1.04 0.87 0.76 0.74 0.73 0.68 0.66 0.67 0.73
0.27 0.30 0.28 0.23 0.21 0.20 0.26 0.31 0.31 0.32 0.30 0.29 0.29 0.27 0.25 0.22 0.17 0.10 0.07 0.06 0.09 0.19 0.33 0.37 0.35 0.33 0.42 0.62 0.74 0.84 0.97 1.14 1.18 1.05 0.90 0.78 0.65 0.61 0.57 0.55 0.54 0.57 0.60
0.28 0.28 0.25 0.25 0.27 0.25 0.24 0.20 0.22 0.24 0.22 0.22 0.24 0.26 0.28 0.26 0.18 0.12 0.12 0.13 0.15 0.20 0.30 0.42 0.49 0.52 0.68 0.89 1.03 1.12 1.19 1.20 1.06 0.94 0.83 0.72 0.59 0.56 0.55 0.50 0.51 0.53 0.57
0.26 0.24 0.22 0.20 0.23 0.27 0.22 0.13 0.11 0.12 0.09 0.13 0.17 0.19 0.25 0.24 0.13 0.10 0.12 0.15 0.18 0.23 0.29 0.44 0.60 0.66 0.79 0.95 1.07 1.14 1.17 1.14 1.05 0.92 0.81 0.71 0.61 0.56 0.53 0.45 0.45 0.46 0.49
0.26 0.21 0.15 0.12 0.14 0.16 0.19 0.18 0.08 0.04 0.03 0.04 0.06 0.08 0.11 0.12 0.10 0.08 0.10 0.14 0.19 0.26 0.34 0.54 0.66 0.68 0.76 0.86 0.96 1.04 1.03 0.99 0.91 0.86 0.81 0.74 0.65 0.56 0.52 0.47 0.44 0.44 0.47
0.19 0.16 0.10 0.06 0.09 0.12 0.15 0.23 0.24 0.13 0.04 0.03 0.03 0.05 0.07 0.08 0.09 0.08 0.08 0.12 0.17 0.26 0.41 0.60 0.70 0.76 0.80 0.83 0.85 0.88 0.93 0.92 0.84 0.77 0.73 0.66 0.57 0.51 0.48 0.46 0.41 0.40 0.39
0.10 0.07 0.06 0.08 0.06 0.08 0.09 0.13 0.18 0.25 0.24 0.18 0.08 0.05 0.06 0.09 0.11 0.10 0.11 0.14 0.22 0.28 0.44 0.59 0.69 0.75 0.79 0.80 0.78 0.74 0.78 0.80 0.74 0.66 0.60 0.55 0.51 0.47 0.43 0.41 0.37 0.31 0.29
0.08 0.08 0.07 0.05 0.05 0.04 0.05 0.07 0.10 0.16 0.20 0.21 0.18 0.11 0.09 0.12 0.14 0.15 0.16 0.20 0.27 0.31 0.39 0.52 0.61 0.66 0.66 0.67 0.67 0.66 0.66 0.68 0.63 0.58 0.54 0.50 0.46 0.42 0.39 0.32 0.27 0.19 0.22
0.05 0.03 0.04 0.04 0.04 0.03 0.03 0.05 0.08 0.13 0.14 0.16 0.18 0.16 0.14 0.24 0.35 0.31 0.25 0.23 0.24 0.27 0.34 0.45 0.54 0.56 0.55 0.52 0.49 0.49 0.50 0.50 0.50 0.48 0.47 0.45 0.41 0.36 0.30 0.24 0.22 0.21 0.23
0.02 0.01 0.01 0.02 0.02 0.02 0.02 0.02 0.04 0.08 0.11 0.13 0.11 0.10 0.17 0.28 0.38 0.36 0.32 0.30 0.30 0.30 0.32 0.36 0.42 0.45 0.45 0.41 0.36 0.34 0.35 0.37 0.38 0.38 0.39 0.38 0.34 0.29 0.23 0.18 0.16 0.13 0.14
0.01 0.01 0.01 0.01 0.01 0.01 0.01 0.02 0.02 0.03 0.05 0.09 0.10 0.10 0.17 0.23 0.29 0.33 0.35 0.35 0.37 0.36 0.33 0.33 0.35 0.36 0.35 0.33 0.31 0.27 0.26 0.27 0.28 0.31 0.33 0.32 0.28 0.23 0.17 0.12 0.10 0.08 0.07
0.01 0.01 0.01 0.01 0.00 0.01 0.01 0.02 0.02 0.02 0.03 0.05 0.07 0.11 0.16 0.23 0.29 0.35 0.39 0.38 0.37 0.37 0.33 0.30 0.32 0.35 0.33 0.28 0.25 0.22 0.21 0.21 0.21 0.25 0.31 0.32 0.26 0.19 0.13 0.09 0.06 0.05 0.04
0.00 0.01 0.01 0.00 0.00 0.01 0.01 0.01 0.01 0.01 0.01 0.03 0.05 0.08 0.12 0.18 0.23 0.28 0.33 0.36 0.37 0.38 0.37 0.38 0.38 0.36 0.31 0.25 0.21 0.19 0.19 0.19 0.19 0.24 0.27 0.29 0.24 0.16 0.10 0.07 0.05 0.04 0.04
0.00 0.00 0.00 0.00 0.00 0.00 0.00 0.01 0.01 0.01 0.01 0.02 0.03 0.05 0.09 0.11 0.13 0.16 0.21 0.26 0.29 0.32 0.34 0.36 0.36 0.32 0.27 0.22 0.17 0.14 0.16 0.16 0.14 0.18 0.25 0.28 0.21 0.14 0.09 0.06 0.05 0.05 0.05
0.00 0.00 0.00 0.00 0.00 0.00 0.00 0.00 0.01 0.01 0.01 0.01 0.02 0.03 0.05 0.07 0.09 0.12 0.14 0.17 0.20 0.23 0.27 0.32 0.32 0.23 0.16 0.12 0.11 0.10 0.08 0.06 0.05 0.08 0.18 0.23 0.17 0.13 0.12 0.10 0.05 0.04 0.05

GEFSGL_prec_meanprecacc_156.txt.gz
Total_Precipitation_Accumulation
0.97 0.95 0.95 0.92 0.84 0.78 0.75 0.69 0.60 0.53 0.49 0.47 0.47 0.46 0.47 0.50 0.53 0.57 0.59 0.61 0.67 0.65 0.63 0.61 0.58 0.57 0.60 0.64 0.70 0.76 0.83 0.90 1.01 0.93 0.79 0.75 0.78 0.82 0.86 0.78 0.76 0.71 0.66
0.79 0.83 0.84 0.77 0.72 0.68 0.63 0.58 0.54 0.48 0.46 0.47 0.47 0.44 0.41 0.40 0.43 0.49 0.55 0.57 0.63 0.64 0.63 0.62 0.57 0.55 0.59 0.60 0.62 0.66 0.75 0.85 0.96 1.00 0.88 0.78 0.75 0.74 0.73 0.69 0.60 0.56 0.57
0.58 0.56 0.61 0.61 0.58 0.55 0.48 0.45 0.43 0.43 0.42 0.39 0.39 0.38 0.37 0.37 0.37 0.37 0.41 0.44 0.50 0.55 0.59 0.64 0.63 0.61 0.58 0.59 0.62 0.65 0.74 0.85 0.96 0.99 0.91 0.82 0.79 0.78 0.83 0.78 0.69 0.73 0.63
0.49 0.45 0.49 0.49 0.48 0.47 0.45 0.41 0.37 0.36 0.36 0.33 0.29 0.27 0.28 0.28 0.28 0.26 0.27 0.30 0.34 0.38 0.44 0.56 0.61 0.61 0.60 0.63 0.67 0.70 0.75 0.85 0.91 0.94 0.88 0.80 0.79 0.81 0.86 0.91 0.89 0.82 0.71
0.47 0.47 0.49 0.45 0.43 0.44 0.45 0.41 0.37 0.35 0.31 0.29 0.26 0.22 0.20 0.21 0.21 0.21 0.21 0.22 0.29 0.32 0.34 0.43 0.50 0.54 0.56 0.57 0.60 0.66 0.75 0.86 0.93 0.96 0.90 0.83 0.78 0.86 0.91 0.90 0.87 0.84 0.72
0.47 0.50 0.52 0.50 0.49 0.49 0.47 0.46 0.42 0.37 0.32 0.26 0.22 0.19 0.17 0.16 0.19 0.19 0.20 0.25 0.30 0.35 0.39 0.42 0.42 0.44 0.43 0.41 0.47 0.55 0.66 0.80 0.94 1.00 0.97 0.92 0.83 0.85 0.91 0.92 0.93 0.92 0.85
0.55 0.54 0.55 0.53 0.53 0.49 0.44 0.44 0.42 0.37 0.32 0.29 0.23 0.20 0.19 0.16 0.15 0.15 0.17 0.27 0.36 0.42 0.45 0.44 0.38 0.38 0.45 0.46 0.45 0.48 0.59 0.68 0.83 1.00 1.06 0.96 0.87 0.88 0.98 1.04 1.00 0.97 0.96
0.60 0.57 0.55 0.51 0.48 0.44 0.43 0.44 0.41 0.36 0.32 0.31 0.27 0.22 0.23 0.17 0.14 0.14 0.16 0.22 0.29 0.32 0.32 0.36 0.43 0.48 0.44 0.43 0.41 0.50 0.61 0.71 0.76 0.83 0.95 0.87 0.79 0.81 0.90 0.96 0.93 0.91 0.85
0.58 0.52 0.45 0.41 0.40 0.39 0.41 0.43 0.40 0.38 0.35 0.31 0.27 0.25 0.26 0.22 0.16 0.14 0.16 0.22 0.25 0.24 0.23 0.26 0.31 0.36 0.35 0.40 0.49 0.63 0.67 0.78 0.83 0.98 0.97 0.87 0.81 0.79 0.71 0.72 0.91 1.03 0.99
0.45 0.37 0.32 0.30 0.33 0.34 0.35 0.37 0.36 0.35 0.32 0.28 0.27 0.27 0.26 0.24 0.17 0.14 0.15 0.18 0.23 0.22 0.26 0.29 0.27 0.24 0.27 0.36 0.51 0.69 0.81 0.85 0.98 1.18 1.12 1.04 0.96 0.89 0.76 0.74 0.97 1.15 1.13
0.33 0.29 0.28 0.27 0.27 0.27 0.29 0.33 0.34 0.32 0.32 0.31 0.31 0.31 0.27 0.21 0.15 0.10 0.09 0.14 0.17 0.22 0.29 0.34 0.33 0.27 0.28 0.33 0.46 0.64 0.80 0.82 1.05 1.31 1.19 1.02 0.95 0.88 0.84 0.84 0.93 1.00 0.99
0.30 0.31 0.30 0.24 0.18 0.19 0.28 0.34 0.32 0.34 0.36 0.37 0.36 0.31 0.26 0.19 0.14 0.10 0.08 0.07 0.10 0.24 0.38 0.35 0.34 0.33 0.32 0.39 0.52 0.68 0.81 0.97 1.16 1.24 1.05 0.88 0.77 0.75 0.74 0.69 0.67 0.68 0.74
0.30 0.34 0.32 0.25 0.23 0.22 0.27 0.31 0.32 0.33 0.31 0.29 0.29 0.28 0.26 0.22 0.17 0.11 0.08 0.08 0.11 0.20 0.34 0.38 0.36 0.34 0.44 0.64 0.76 0.86 0.99 1.17 1.21 1.07 0.91 0.79 0.66 0.61 0.58 0.56 0.54 0.57 0.60
0.29 0.29 0.26 0.26 0.28 0.27 0.26 0.21 0.22 0.25 0.23 0.22 0.24 0.26 0.28 0.27 0.19 0.13 0.14 0.15 0.17 0.21 0.31 0.43 0.51 0.54 0.69 0.90 1.04 1.14 1.21 1.23 1.08 0.95 0.84 0.73 0.60 0.57 0.55 0.50 0.52 0.53 0.57
0.27 0.26 0.24 0.22 0.24 0.28 0.23 0.14 0.12 0.13 0.10 0.14 0.18 0.20 0.26 0.25 0.15 0.12 0.14 0.17 0.19 0.24 0.29 0.45 0.61 0.67 0.80 0.96 1.09 1.16 1.18 1.15 1.06 0.93 0.82 0.71 0.62 0.56 0.53 0.46 0.45 0.47 0.50
0.27 0.23 0.16 0.13 0.15 0.17 0.19 0.18 0.09 0.04 0.04 0.04 0.06 0.09 0.11 0.13 0.11 0.09 0.12 0.16 0.20 0.28 0.35 0.56 0.67 0.69 0.77 0.86 0.96 1.05 1.03 0.99 0.91 0.87 0.81 0.74 0.65 0.56 0.52 0.47 0.44 0.44 0.48
0.20 0.17 0.10 0.07 0.09 0.12 0.15 0.23 0.24 0.13 0.04 0.04 0.03 0.05 0.07 0.08 0.10 0.10 0.11 0.15 0.18 0.28 0.42 0.61 0.71 0.77 0.81 0.83 0.85 0.88 0.93 0.92 0.84 0.78 0.73 0.67 0.58 0.52 0.49 0.46 0.42 0.40 0.40
0.10 0.07 0.06 0.08 0.07 0.08 0.09 0.13 0.18 0.25 0.24 0.18 0.08 0.05 0.07 0.09 0.11 0.12 0.14 0.16 0.22 0.28 0.44 0.59 0.69 0.75 0.79 0.80 0.78 0.74 0.78 0.80 0.74 0.66 0.61 0.55 0.51 0.47 0.43 0.41 0.37 0.31 0.29
0.09 0.08 0.07 0.05 0.05 0.04 0.05 0.07 0.11 0.16 0.20 0.21 0.18 0.12 0.09 0.12 0.15 0.16 0.19 0.22 0.28 0.31 0.39 0.52 0.61 0.66 0.66 0.67 0.67 0.66 0.66 0.68 0.63 0.58 0.54 0.50 0.47 0.42 0.39 0.32 0.27 0.20 0.22
0.05 0.03 0.04 0.04 0.04 0.04 0.04 0.05 0.08 0.13 0.15 0.17 0.19 0.17 0.15 0.25 0.35 0.32 0.27 0.26 0.25 0.27 0.34 0.45 0.54 0.56 0.55 0.52 0.49 0.49 0.50 0.50 0.50 0.48 0.47 0.45 0.41 0.36 0.30 0.24 0.22 0.21 0.23
0.03 0.02 0.01 0.02 0.02 0.02 0.03 0.03 0.04 0.08 0.11 0.14 0.12 0.11 0.18 0.29 0.39 0.38 0.34 0.33 0.31 0.30 0.32 0.36 0.42 0.45 0.45 0.41 0.36 0.34 0.35 0.37 0.38 0.38 0.39 0.38 0.34 0.29 0.23 0.18 0.16 0.13 0.14
0.02 0.02 0.01 0.02 0.01 0.01 0.02 0.02 0.02 0.03 0.06 0.10 0.11 0.10 0.17 0.23 0.30 0.34 0.36 0.36 0.37 0.36 0.33 0.33 0.35 0.36 0.35 0.33 0.31 0.27 0.26 0.27 0.28 0.31 0.33 0.32 0.28 0.23 0.17 0.12 0.10 0.08 0.07
0.01 0.01 0.01 0.01 0.01 0.02 0.02 0.02 0.02 0.02 0.03 0.05 0.08 0.11 0.16 0.23 0.29 0.35 0.39 0.39 0.37 0.37 0.33 0.30 0.32 0.36 0.33 0.28 0.25 0.22 0.21 0.21 0.21 0.25 0.31 0.32 0.26 0.19 0.13 0.09 0.06 0.05 0.04
0.01 0.01 0.01 0.01 0.01 0.02 0.01 0.02 0.01 0.01 0.01 0.03 0.05 0.08 0.12 0.18 0.23 0.28 0.33 0.36 0.37 0.38 0.37 0.38 0.38 0.36 0.31 0.25 0.21 0.19 0.19 0.20 0.20 0.24 0.27 0.29 0.25 0.16 0.10 0.07 0.05 0.04 0.04
0.00 0.01 0.01 0.00 0.00 0.01 0.01 0.01 0.01 0.01 0.01 0.02 0.03 0.05 0.09 0.11 0.13 0.16 0.22 0.26 0.29 0.32 0.34 0.36 0.36 0.32 0.27 0.22 0.17 0.14 0.16 0.17 0.15 0.19 0.26 0.29 0.22 0.15 0.10 0.07 0.06 0.05 0.05
0.00 0.00 0.00 0.00 0.00 0.00 0.00 0.00 0.01 0.01 0.01 0.01 0.02 0.03 0.05 0.07 0.09 0.12 0.14 0.17 0.20 0.23 0.27 0.32 0.32 0.23 0.16 0.12 0.11 0.10 0.09 0.06 0.06 0.08 0.19 0.24 0.18 0.14 0.13 0.11 0.07 0.06 0.06